This is the latest recevied weather packets stored in our database for station/object KB0RPJ. If no packets are shown the sender has not sent any weather packets the latest 10 day(s).
| Time | Temp. | Humidity | Pressure | Rain* | Wind** | Luminosity | Snow |
|---|---|---|---|---|---|---|---|
| 1777653005 | 14.44° C | 45% | 1017.8 hPa | 0 mm | - | 827 W/m² | - |
| 1777652705 | 13.89° C | 48% | 1017.8 hPa | 0 mm | - | 810 W/m² | - |
| 1777652405 | 13.89° C | 46% | 1017.8 hPa | 0 mm | - | 802 W/m² | - |
| 1777652105 | 13.89° C | 43% | 1018 hPa | 0 mm | - | 796 W/m² | - |
| 1777651805 | 13.89° C | 47% | 1018 hPa | 0 mm | - | 784 W/m² | - |
| 1777651505 | 13.89° C | 45% | 1018.1 hPa | 0 mm | - | 781 W/m² | - |
| 1777651204 | 13.89° C | 45% | 1018 hPa | 0 mm | - | 756 W/m² | - |
| 1777650905 | 13.89° C | 47% | 1018 hPa | 0 mm | - | 782 W/m² | - |
| 1777650605 | 13.33° C | 51% | 1017.9 hPa | 0 mm | - | 854 W/m² | - |
| 1777650305 | 13.33° C | 48% | 1018 hPa | 0 mm | - | 748 W/m² | - |
| 1777650006 | 13.33° C | 46% | 1018 hPa | 0 mm | - | 722 W/m² | - |
| 1777649704 | 12.78° C | 47% | 1018 hPa | 0 mm | - | 622 W/m² | - |
| 1777649418 | 12.78° C | 47% | 1018 hPa | 0 mm | - | 679 W/m² | - |
| 1777649105 | 12.78° C | 49% | 1018 hPa | 0 mm | - | 663 W/m² | - |
| 1777648809 | 12.22° C | 50% | 1018 hPa | 0 mm | - | 645 W/m² | - |
| 1777648505 | 12.22° C | 48% | 1018 hPa | 0 mm | - | 590 W/m² | - |
| 1777648206 | 11.67° C | 48% | 1018.1 hPa | 0 mm | - | 615 W/m² | - |
| 1777647905 | 11.67° C | 51% | 1018.1 hPa | 0 mm | - | 603 W/m² | - |
| 1777647605 | 11.67° C | 51% | 1018.1 hPa | 0 mm | - | 181 W/m² | - |
| 1777647306 | 11.11° C | 52% | 1018.2 hPa | 0 mm | - | 130 W/m² | - |
| 1777647009 | 11.11° C | 53% | 1018.2 hPa | 0 mm | - | 126 W/m² | - |
| 1777646705 | 11.11° C | 55% | 1018.2 hPa | 0 mm | - | 92 W/m² | - |
| 1777646405 | 10.56° C | 55% | 1018.3 hPa | 0 mm | - | 98 W/m² | - |
| 1777646105 | 10.56° C | 58% | 1018.3 hPa | 0 mm | - | 95 W/m² | - |
| 1777645805 | 10° C | 60% | 1018.3 hPa | 0 mm | - | 97 W/m² | - |
* Rain latest hour (hover to see other rain measurements)
** Current wind speed in m/s (hover to see current wind gust speed)